sat.trackr.live / text

‹ back to catalog

ONEWEB-0285

NORAD 49075 · 2021-075A

PAYLOAD ACTIVE UNKNOWN

§ Identity

Operator
Country
UK
Launch date
2021-08-21
Launch site
TYMSC
Launch vehicle
Mass (kg)
RCS (m²)

Purposes: comms

External: N2YO · Heavens-Above · Gunter

§ Orbital elements

Epoch: 2026-09-20T03:04:20.318016Z

Period
109.72 min
Inclination
87.8984°
Eccentricity
0.0001920
Mean motion
13.12440560 rev/d
Perigee alt
1,212.3 km
Apogee alt
1,215.2 km
Semi-major
7,591.9 km
B*
1.7441e-4
RAAN
331.8159°
Arg perigee
98.2624°
Mean anomaly
261.8723°
Rev number
24,766

§ Raw data

ONEWEB-02851 49075U 21075A   26263.12801294  .00000075  00000+0  17441-3 0  99972 49075  87.8984 331.8159 0001920  98.2624 261.8723 13.12440560247664

JSON: /api/v1/satellites/49075 · /tle

For live sub-satellite position, see the globe view (requires WebGL).

§ Visibility from observer

Set your observer location to see the next 7 days of passes ≥ 10°. The values pass through the URL so the page stays shareable.

No JS? Fill the form by hand. The geolocation button needs JavaScript.